Location: Sternwarte-Kraichtal
(49.1689°N, 8.6996°E)
Time: 00:31:07
(UTC+01:00)

Envisat - Visible Passes

Search period start: 29 January 2022 00:00
Search period end: 08 February 2022 00:00
Orbit: 764 x 766 km, 98.2° (Epoch: 28 January)

Date Brightness Start Highest point End Pass type
(mag) Time Alt. Az. Time Alt. Az. Time Alt. Az.
29 Jan 3.5 05:08:03 10° NNE 05:13:05 57° E 05:18:05 10° S visible
29 Jan 4.0 06:47:45 10° N 06:51:45 24° WNW 06:55:45 10° WSW visible
29 Jan 6.4 18:10:18 10° W 18:11:35 11° W 18:12:52 10° WNW visible
30 Jan 4.8 04:31:37 10° NE 04:35:59 28° E 04:40:21 10° SSE visible
30 Jan 3.2 06:10:21 10° N 06:15:11 45° WNW 06:19:59 10° SW visible
31 Jan 5.8 03:56:02 10° NE 03:58:40 14° E 04:01:19 10° ESE visible
31 Jan 2.9 05:33:17 10° NNE 05:38:24 88° WNW 05:43:30 10° SSW visible
31 Jan 4.5 07:13:44 10° NNW 07:16:43 16° NW 07:19:41 10° W visible
01 Feb 3.9 04:56:32 10° NNE 05:01:27 46° E 05:06:18 10° S visible
01 Feb 3.8 06:35:57 10° N 06:40:16 29° WNW 06:44:34 10° WSW visible
01 Feb 6.1 17:57:14 10° WSW 17:59:49 14° W 18:02:24 10° NW visible
02 Feb 5.2 04:20:15 10° NE 04:24:17 23° E 04:28:16 10° SE visible
02 Feb 3.0 05:58:40 10° N 06:03:38 55° WNW 06:08:34 10° SW visible
03 Feb 6.0 03:45:30 10° ENE 03:46:54 11° E 03:48:18 10° E visible
03 Feb 3.1 05:21:41 10° NNE 05:26:48 76° ESE 05:31:52 10° S visible
03 Feb 4.3 07:01:45 10° NNW 07:05:15 19° WNW 07:08:45 10° WSW visible
04 Feb 4.4 04:45:04 10° NNE 04:49:47 37° E 04:54:28 10° SSE visible
04 Feb 3.6 06:24:11 10° N 06:28:46 35° WNW 06:33:19 10° SW visible
05 Feb 5.5 04:09:00 10° NE 04:12:33 19° E 04:16:04 10° SE visible
05 Feb 2.9 05:47:00 10° N 05:52:04 68° WNW 05:57:06 10° SSW visible
06 Feb 3.4 05:10:07 10° NNE 05:15:10 61° E 05:20:12 10° S visible
06 Feb 4.1 06:49:53 10° N 06:53:48 23° WNW 06:57:42 10° WSW visible
06 Feb 6.5 18:13:25 10° W 18:13:43 10° W 18:14:02 10° W visible
07 Feb 4.7 04:33:37 10° NNE 04:38:05 30° E 04:42:32 10° SSE visible
07 Feb 3.3 06:12:27 10° N 06:17:14 42° WNW 06:21:59 10° SW visible
